Flag for French Polynesia Weather past 2 weeks in Papeete, Tahiti, French Polynesia

Now
82 °F

Scattered showers. Partly cloudy.


Feels Like: 87 °F
Forecast: 79 / 89 °F
Wind: 9 mph from East

Location: Tahiti-Faaa

Current Time: Mar 2, 2015 at 7:16:14 PM

Latest Report: Mar 2, 2015 at 7:00 PM


Visibility: N/A

Pressure: 29.86 "Hg

Humidity: 70%

Dew point: 72 °F

Location of PapeeteLocation

Historic Weather in Papeete — Graph

°F

Papeete temperature yesterday

Maximum temperature yesterday: 88 °F (at 11:30 AM)
Minimum temperature yesterday: 75 °F (at 2:30 AM)
Average temperature yesterday: 82 °F

Past Weeks' High & Low Weather Summary

 TemperatureHumidityPressure
High90 °F (Feb 16, 1:00 PM)94% (Feb 28, 2:30 AM)30.01 "Hg (Feb 28, 2:30 AM)
Low75 °F (Feb 16, 5:30 AM)49% (Feb 22, 12:30 PM)29.74 "Hg (Feb 23, 3:30 PM)
Average82 °F71%29.88 "Hg
* Reported Feb 15 6:00 PM — Mar 2 6:00 PM, Papeete, Weather by CustomWeather, © 2015

Note: Actual official high and low records may vary slightly from our data, if they occured in-between our weather recording intervals... More about our weather records

Advertising

Papeete weather history for previous 24 hours

 ConditionsComfort  
Time TempWeatherWind HumidityBarometerVisibility
6:00 PM
Mon, Mar 2
82 °FLight rain. Broken clouds.12 mph70%29.86 "HgN/A
5:30 PM81 °FBroken clouds.12 mph79%29.83 "HgN/A
5:00 PM79 °FLight rain. Broken clouds.17 mph84%29.83 "Hg5 mi
4:30 PM84 °FScattered showers. Scattered clouds.12 mph70%29.83 "HgN/A
4:00 PM84 °FScattered showers. Scattered clouds.14 mph66%29.80 "HgN/A
3:30 PM86 °FScattered showers. Scattered clouds.10 mph70%29.80 "HgN/A
3:00 PM84 °FScattered showers. Broken clouds.12 mph70%29.80 "HgN/A
2:30 PM82 °FScattered showers. Broken clouds.10 mph74%29.80 "HgN/A
2:00 PM81 °FLight rain. Broken clouds.9 mph84%29.83 "HgN/A
1:30 PM81 °FBroken clouds.12 mph84%29.83 "HgN/A
1:00 PM81 °FLight rain. Broken clouds.20 mph84%29.83 "Hg5 mi
12:30 PM88 °FScattered showers. Passing clouds.16 mph66%29.86 "HgN/A
12:00 PM86 °FPassing clouds.15 mph66%29.86 "HgN/A
11:30 AM86 °FPassing clouds.16 mph66%29.86 "HgN/A
11:00 AM84 °FScattered showers. Scattered clouds.13 mph74%29.86 "HgN/A
10:30 AM81 °FLight rain. Broken clouds.12 mph84%29.89 "Hg5 mi
10:00 AM86 °FPassing clouds.12 mph66%29.86 "HgN/A
9:30 AM86 °FPassing clouds.12 mph66%29.86 "HgN/A
9:00 AM86 °FPassing clouds.14 mph66%29.86 "HgN/A
8:30 AM84 °FPassing clouds.14 mph66%29.86 "HgN/A
8:00 AM82 °FPassing clouds.10 mph70%29.86 "HgN/A
7:30 AM82 °FPassing clouds.9 mph66%29.86 "HgN/A
7:00 AM81 °FPassing clouds.8 mph70%29.86 "HgN/A
6:30 AM79 °FPassing clouds.9 mph74%29.83 "HgN/A
6:00 AM79 °FPassing clouds.9 mph74%29.83 "HgN/A
5:30 AM79 °FWarm.7 mph74%29.80 "HgN/A
5:00 AM79 °FWarm.8 mph74%29.80 "HgN/A
4:30 AM79 °FWarm.7 mph74%29.80 "HgN/A
4:00 AM79 °FPassing clouds.8 mph74%29.80 "HgN/A
3:30 AM79 °FPassing clouds.7 mph74%29.80 "HgN/A
3:00 AM77 °FPassing clouds.5 mph79%29.80 "HgN/A
2:30 AM79 °FPassing clouds.3 mph70%29.80 "HgN/A
2:00 AM79 °FPassing clouds.5 mph74%29.83 "HgN/A
1:30 AM79 °FPassing clouds.7 mph74%29.83 "HgN/A
1:00 AM79 °FPassing clouds.8 mph74%29.83 "HgN/A
12:30 AM79 °FPassing clouds.12 mph74%29.86 "HgN/A
12:00 AM81 °FPassing clouds.16 mph74%29.86 "HgN/A
11:30 PM
Sun, Mar 1
81 °FPassing clouds.7 mph74%29.86 "HgN/A
11:00 PM81 °FPassing clouds.6 mph74%29.89 "HgN/A
10:30 PM81 °FPassing clouds.8 mph79%29.89 "HgN/A
10:00 PM81 °FPassing clouds.14 mph79%29.89 "HgN/A
9:30 PM81 °FPassing clouds.17 mph79%29.89 "HgN/A
9:00 PM81 °FPassing clouds.7 mph70%29.86 "HgN/A
8:30 PM81 °FPassing clouds.3 mph70%29.86 "HgN/A
8:00 PM82 °FPassing clouds.7 mph66%29.86 "HgN/A
7:30 PM82 °FPassing clouds.6 mph70%29.83 "HgN/A
7:00 PM82 °FPassing clouds.8 mph66%29.83 "HgN/A
Weather by CustomWeather, © 2015

See weather overviewHow to use our weather pages